Regional Weather Roundup
Issued by NWS

Home | Current Version | Previous Version | Graphics & Text | Print | Product List | Glossary On
Versions: 1 2 3 4 5 6 7 8 9 10 11 12 13 14 15 16 17 18 19 20 21 22 23 24 25 26 27 28 29 30 31 32 33 34 35 36 37 38 39 40 41 42 43 44 45 46 47 48 49 50
467
ASUS45 KPSR 220010
RWRAZ

ARIZONA HOURLY REGIONAL WEATHER ROUNDUP
NATIONAL WEATHER SERVICE PHOENIX AZ
500 PM MST TUE FEB 21 2017

NOTE: FAIR INDICATES FEW OR NO CLOUDS BELOW 12,000 FEET WITH NO
SIGNIFICANT WEATHER AND/OR OBSTRUCTIONS TO VISIBILITY.

AZZ001>003-036-220100-
NORTHWEST ARIZONA

CITY           SKY/WX    TMP DP  RH WIND       PRES   REMARKS
BULLHEAD CITY  CLOUDY    68  55  64 E5        30.16F
KINGMAN        CLOUDY    64  37  36 SW10      30.21F
6HR MIN TEMP:  56; 6HR MAX TEMP:  67; 6HR PCP:  0.02;

$$

AZZ004>008-015-016-018-220100-
NORTH CENTRAL ARIZONA

CITY           SKY/WX    TMP DP  RH WIND       PRES   REMARKS
GRAND CANYON   LGT RAIN  46  39  76 W13G28    30.31R
6HR MIN TEMP:  46; 6HR MAX TEMP:  58; 6HR PCP:  0.03;

WILLIAMS       CLOUDY    50  43  76 SW13G21   30.32R
PRESCOTT       MOSUNNY   62  41  46 W14       30.28S
6HR MIN TEMP:  57; 6HR MAX TEMP:  66;

FLAGSTAFF      CLOUDY    52  38  58 SW10      30.31S
6HR MIN TEMP:  52; 6HR MAX TEMP:  58;

PAYSON         SUNNY     63  45  51 W10       30.31S
PAGE           CLOUDY    62  38  40 NW3       30.16F
6HR MIN TEMP:  54; 6HR MAX TEMP:  64;

$$

AZZ009>014-017-220100-
NORTHEAST ARIZONA

CITY           SKY/WX    TMP DP  RH WIND       PRES   REMARKS
WINSLOW        SUNNY     68  36  30 SW26      30.22S
6HR MIN TEMP:  59; 6HR MAX TEMP:  73;

SAINT JOHNS    SUNNY     65  32  29 VRB3      30.23F
6HR MIN TEMP:  56; 6HR MAX TEMP:  67;

WINDOW ROCK    MOSUNNY   60  32  34 W9        30.29S
6HR MIN TEMP:  52; 6HR MAX TEMP:  62;

SHOW LOW       SUNNY     59  28  31 SW16      30.30S
$$

AZZ023-220100-
GREATER PHOENIX AREA

CITY           SKY/WX    TMP DP  RH WIND       PRES   REMARKS
PHOENIX        MOSUNNY   75  48  38 W9        30.14F
6HR MIN TEMP:  65; 6HR MAX TEMP:  76;

BUCKEYE        SUNNY     73  52  46 NW3       30.17S
GLENDALE       PTSUNNY   75  54  46 CALM      30.17F
LUKE AFB       SUNNY     74  55  50 CALM      30.14F
6HR MIN TEMP:  64; 6HR MAX TEMP:  75;

DEER VALLEY    SUNNY     73  48  41 W7        30.16F
6HR MIN TEMP:  63; 6HR MAX TEMP:  74;

SCOTTSDALE     SUNNY     73  48  41 W5        30.24F
6HR MIN TEMP:  64; 6HR MAX TEMP:  75;

MESA-FALCON    SUNNY    N/A N/A N/A W6        30.14
MESA-GATEWAY   PTSUNNY   73  48  40 NW8       30.17F
CHANDLER       SUNNY     73  54  49 SW8       30.16F
$$

AZZ027-028-220100-
SOUTHWEST MARICOPA COUNTY AND PINAL COUNTY

CITY           SKY/WX    TMP DP  RH WIND       PRES   REMARKS
CASA GRANDE    NOT AVBL
GILA BEND      PTSUNNY   75  51  42 W3        30.14F
6HR MIN TEMP:  66; 6HR MAX TEMP:  76;

$$

AZZ503-504-507>509-220100-
SOUTHEAST ARIZONA

CITY           SKY/WX    TMP DP  RH WIND       PRES   REMARKS
TUCSON         SUNNY     77  47  34 N7        30.19F
DAVIS-MONTHAN  SUNNY     74  47  39 NW8       30.18F
6HR MIN TEMP:  61; 6HR MAX TEMP:  74;

RYAN FIELD     SUNNY     75  45  33 NW9       30.19F
NOGALES        SUNNY     75  34  22 NW8       30.20F
6HR MIN TEMP:  61; 6HR MAX TEMP:  78;

SIERRA VISTA   SUNNY     71  32  23 NE6       30.25F
6HR MIN TEMP:  65; 6HR MAX TEMP:  73;

DOUGLAS        SUNNY     75  32  20 NW5       30.21F
6HR MIN TEMP:  62; 6HR MAX TEMP:  76;

SAFFORD        SUNNY     75  38  26 W10       30.15F
6HR MIN TEMP:  59; 6HR MAX TEMP:  76;

$$

AZZ020-021-025-026-031-220100-
SOUTHWEST ARIZONA

CITY           SKY/WX    TMP DP  RH WIND       PRES   REMARKS
YUMA           SUNNY     79  47  32 CALM      30.12F
6HR MIN TEMP:  70; 6HR MAX TEMP:  80;

$$

CAZ031-033-041-043-047-048-061-220100-
SOUTHERN CALIFORNIA

CITY           SKY/WX    TMP DP  RH WIND       PRES   REMARKS
DOWNTOWN L.A.  CLOUDY    66  52  60 VRB5      30.23F
6HR MIN TEMP:  62; 6HR MAX TEMP:  68; 6HR PCP: TRACE;

L.A. AIRPORT   CLOUDY    61  56  83 W9        30.24F
6HR MIN TEMP:  60; 6HR MAX TEMP:  64; 6HR PCP: TRACE;

SAN DIEGO      PTSUNNY   67  55  65 NW12      30.22F
6HR MIN TEMP:  66; 6HR MAX TEMP:  74;

BURBANK        CLOUDY    63  45  51 SW6       30.23S
6HR MIN TEMP:  59; 6HR MAX TEMP:  64;

ONTARIO        CLOUDY    65  39  38 W7        30.23S
6HR MIN TEMP:  62; 6HR MAX TEMP:  67; 6HR PCP: TRACE;

RIVERSIDE      CLOUDY    67  48  50 W6        30.22S
6HR MIN TEMP:  61; 6HR MAX TEMP:  69;

PALM SPRINGS   PTSUNNY   74  51  44 S6        30.16F
6HR MIN TEMP:  67; 6HR MAX TEMP:  76;

EL CENTRO NAS  PTSUNNY   78  46  32 CALM      30.15F
6HR MIN TEMP:  67; 6HR MAX TEMP:  79;

IMPERIAL       SUNNY     78  53  41 NW5       30.13S
6HR MIN TEMP:  66; 6HR MAX TEMP:  78;

BLYTHE         SUNNY     75  54  47 NE6       30.14F
6HR MIN TEMP:  64; 6HR MAX TEMP:  75;

NEEDLES        PTSUNNY   72  53  51 CALM      30.16F
6HR MIN TEMP:  64; 6HR MAX TEMP:  73; 6HR PCP: TRACE;

$$

NVZ020-UTZ003-220100-
SOUTHERN NEVADA-UTAH

CITY           SKY/WX    TMP DP  RH WIND       PRES   REMARKS
LAS VEGAS      PTSUNNY   69  34  27 S10G22    30.08F
6HR MIN TEMP:  67; 6HR MAX TEMP:  70;

SALT LAKE CITY CLOUDY    61  32  33 S22G32    29.87F
6HR MIN TEMP:  59; 6HR MAX TEMP:  64;

$$

NMZ009-TXZ055-220100-
NEW MEXICO-WEST TEXAS

CITY           SKY/WX    TMP DP  RH WIND       PRES   REMARKS
ALBUQUERQUE    MOSUNNY   67  27  22 NW8       30.20F
6HR MIN TEMP:  57; 6HR MAX TEMP:  69;

EL PASO        SUNNY     74  29  19 W8        30.17S
6HR MIN TEMP:  61; 6HR MAX TEMP:  76;

$$


........................KEY........................
SKY/WX - SKY CONDITION/WEATHER
TMP    - TEMPERATURE IN FAHRENHEIT
DP     - DEW POINT IN FAHRENHEIT
RH     - RELATIVE HUMIDITY IN PERCENT
WIND   - DIRECTION AND SPEED IN MILES PER HOUR (MPH)
VRB    - VARIABLE WIND DIRECTION
PRES   - MEAN SEA LEVEL PRESSURE IN INCHES OF MERCURY
         F - FALLING PRESSURE   R - RISING PRESSURE
         S - STEADY PRESSURE
VSB    - VISIBILITY IN MILES
HX     - HEAT INDEX IN FAHRENHEIT
WCI    - WIND CHILL INDEX IN FAHRENHEIT
TC     - TEMPERATURE IN CELSIUS WHICH IS ALSO KNOWN AS
         TEMPERATURE IN CENTIGRADE
AFB    - AIR FORCE BASE
         LUKE AFB IS LUKE AIR FORCE BASE
         DAVIS-MONTHAN IS DAVIS-MONTHAN AIR FORCE BASE
NAS    - NAVAL AIR STATION
         EL CENTRO NAS IS EL CENTRO NAVAL AIR STATION
N/A    - NOT AVAILABLE





USA.gov is the U.S. government's official web portal to all federal, state and local government web resources and services.